[[{"header":{"parameterUnit":"m.s-1","parameterCategory":2,"la1":30.2991,"la2":30.254,"lo1":-89.0895,"lo2":-89.0444,"dy":0.0017,"dx":0.0017,"nx":28,"ny":28,"refTime":"2023-10-13T09:00:00:Z","depth":"0","parameterNumber":2,"parameterNumberName":"U-component_of_CURRENTS"},"data":[0,0,0,0,0,0,0,0,0,0,0,0,0,0,0,0,0,0,0,0,0,0,0,0,0,0,0,0,0,0,0,0,0,0,0,0,0,0,0,0,0,0,0,0,0,0,0,0,0,0,0,0,0,0,0,0,0,0,0.2829,0.2829,0,0.2816,0.2815,0.2815,0.28,0.2801,0.2801,0.2801,0.2877,0.2879,0.2881,0,0,0,0,0,0,0,0,0,0,0,0,0,0.2795,0.2796,0.2829,0.2829,0.2829,0.2816,0.2815,0.2815,0.28,0.2801,0.2801,0.2801,0.2877,0.2879,0.2881,0,0,0,0,0,0,0,0,0,0,0,0,0,0.2796,0.2796,0.2829,0.2823,0.2823,0.2816,0.2815,0.2815,0.28,0.2801,0.2801,0.2801,0.2876,0.2879,0.2881,0.2897,0,0,0.289,0.2892,0,0,0,0,0,0,0,0,0.2796,0.2797,0.2824,0.2823,0.2823,0.2813,0.2831,0.2848,0.28,0.2805,0.2801,0.2801,0.2866,0.287,0.2861,0.2901,0.2904,0.2891,0.2892,0.2894,0.2895,0,0,0,0,0,0,0,0.2796,0.2797,0.2821,0.2824,0.2823,0.2805,0.2805,0.2834,0.2834,0.2805,0.2805,0.2808,0.2866,0.2858,0.2863,0.2905,0.2891,0.2893,0.2895,0.2896,0.3025,0.3027,0,0,0,0,0,0,0.2806,0.2797,0.2821,0.2821,0.2813,0.2806,0.2806,0.2813,0.2832,0.2835,0.2808,0.2808,0.2853,0.286,0.2866,0.294,0.2894,0.2896,0.2898,0.3023,0.3025,0.3027,0,0,0,0,0,0,0.2806,0.2809,0.2822,0.2811,0.2812,0.2807,0.2815,0.2813,0.2801,0.2834,0.2838,0.2798,0.2853,0.2862,0.2907,0.2941,0.2898,0.29,0.3021,0.3024,0.3026,0.3054,0,0,0,0,0,0,0.2805,0.2809,0.2809,0.2812,0.2813,0.2822,0.2815,0.2813,0.2805,0.2804,0.2827,0.2834,0.2854,0.2902,0.291,0.2944,0.2903,0.3019,0.3023,0.3025,0.3051,0.3057,0.3063,0,0,0,0,0,0.2804,0.2796,0.2809,0.2812,0.2817,0.2822,0.282,0.2815,0.2804,0.2803,0.283,0.2833,0.2928,0.2906,0.2914,0.295,0.3018,0.3022,0.3025,0.3049,0.3056,0.3063,0,0,0,0,0,0,0.2769,0.2794,0.2809,0.2807,0.2821,0.2821,0.2813,0.2811,0.2824,0.283,0.285,0.286,0.2915,0.2927,0.2902,0.2998,0.2976,0.2981,0.2991,0.2998,0.3003,0.2958,0.2905,0,0,0,0,0,0.2769,0.2774,0.28,0.2797,0.2807,0.2811,0.2808,0.2815,0.283,0.2833,0.2856,0.2891,0.2936,0.296,0.2997,0.3043,0.3042,0.3075,0.308,0.3085,0.3056,0.3088,0.3093,0.3039,0.3039,0.3039,0,0,0.2747,0.2767,0.2765,0.2791,0.2799,0.2813,0.2808,0.2815,0.2829,0.2845,0.287,0.291,0.2953,0.3012,0.3038,0.3027,0.3108,0.309,0.3093,0.306,0.3093,0.3098,0.3102,0.3042,0.3042,0.3041,0,0,0.2719,0.2737,0.274,0.2761,0.2792,0.2805,0.2808,0.2827,0.2838,0.2879,0.2902,0.2952,0.3011,0.305,0.3077,0.3132,0.3137,0.3159,0.3152,0.3186,0.319,0.3193,0.3227,0.3232,0.3163,0.3163,0.3163,0,0.2692,0.2712,0.2738,0.2757,0.2773,0.2802,0.2815,0.2833,0.2865,0.2883,0.2896,0.2988,0.3027,0.3092,0.3116,0.3144,0.3158,0.3123,0.3191,0.3194,0.3197,0.323,0.3236,0.3164,0.3164,0.3164,0.3164,0,0.2678,0.2698,0.2701,0.2745,0.2764,0.2779,0.2826,0.2851,0.2878,0.2901,0.2969,0.3027,0.3076,0.3115,0.3131,0.3183,0.3188,0.3193,0.3166,0.3203,0.3237,0.3243,0.3167,0.3166,0.3166,0.3165,0,0,0.2602,0.2676,0.2675,0.2707,0.2764,0.2779,0.282,0.2863,0.2884,0.2941,0.2973,0.306,0.3084,0.3113,0.3157,0.3184,0.3237,0.3191,0.3192,0.321,0.3312,0.3375,0.3388,0.3255,0.3256,0.3256,0.3337,0,0.2582,0.2618,0.266,0.2693,0.2722,0.2776,0.2809,0.2858,0.2904,0.2947,0.3015,0.3066,0.3089,0.3125,0.3158,0.3219,0.3248,0.3213,0.3283,0.3284,0.3325,0.3395,0.339,0.3466,0.3342,0.3343,0.3344,0,0.2555,0.2592,0.2622,0.2697,0.2711,0.2734,0.2799,0.2836,0.2908,0.2945,0.3002,0.3049,0.3117,0.3125,0.3224,0.3202,0.3244,0.3282,0.3287,0.3327,0.3358,0.3405,0.3481,0.3325,0.3352,0.3352,0.3351,0,0.2502,0.2563,0.259,0.2613,0.2697,0.272,0.276,0.283,0.2874,0.2937,0.2976,0.3051,0.3109,0.3164,0.326,0.324,0.3362,0.3351,0.3444,0.345,0.3446,0.345,0.336,0.3395,0.3395,0.3395,0.3395,0,0.2471,0.249,0.2569,0.2585,0.2621,0.269,0.2731,0.2778,0.2857,0.2916,0.2968,0.3039,0.3117,0.3208,0.3266,0.3395,0.3378,0.3446,0.3478,0.3462,0.3466,0.333,0.3254,0.3398,0.3397,0.3397,0.3396,0,0.2412,0.2459,0.2502,0.2582,0.2602,0.263,0.2717,0.2756,0.2823,0.2903,0.2927,0.3042,0.3167,0.3258,0.3372,0.3424,0.3442,0.3564,0.3544,0.3573,0.3509,0.3437,0.3303,0.3208,0.3671,0.3673,0.3675,0,0.2386,0.2404,0.2484,0.2508,0.2542,0.2593,0.2634,0.2724,0.2778,0.2922,0.2967,0.3102,0.3217,0.3419,0.3544,0.3674,0.3509,0.3713,0.3669,0.3507,0.3449,0.3288,0.3203,0.3683,0.3685,0.3686,0.3687,0,0.2343,0.2373,0.2408,0.246,0.2502,0.2556,0.2624,0.2665,0.2787,0.2872,0.3022,0.3126,0.3355,0.3512,0.3678,0.3751,0.3546,0.3747,0.3576,0.3449,0.3267,0.3192,0.3618,0.37,0.3698,0.3697,0.3697,0.3696,0.2305,0.2317,0.2368,0.2402,0.2457,0.251,0.2529,0.2635,0.2732,0.2856,0.3025,0.3159,0.3408,0.3669,0.3714,0.3727,0.365,0.3666,0.3595,0.3446,0.3328,0.3791,0.3913,0.3913,0.3913,0.3912,0.3912,0,0.2248,0.2267,0.2306,0.2356,0.2383,0.2439,0.2516,0.2533,0.2629,0.2808,0.2964,0.3193,0.3374,0.3499,0.3666,0.3593,0.3418,0.3464,0.3192,0.3119,0.3545,0.352,0.3565,0.3565,0.3565,0.3565,0.3565,0.3566,0.2219,0.2221,0.2235,0.2254,0.2293,0.2301,0.2325,0.2391,0.2498,0.2638,0.2762,0.2917,0.3146,0.3387,0.3382,0.3315,0.2999,0.2964,0.2819,0.3084,0.3094,0.3103,0.3057,0.3004,0.3003,0.2331,0.2325,0.2321]},{"header":{"parameterUnit":"m.s-1","parameterCategory":2,"la1":30.2991,"la2":30.254,"lo1":-89.0895,"lo2":-89.0444,"dy":0.0017,"dx":0.0017,"nx":28,"ny":28,"refTime":"2023-10-13T09:00:00:Z","depth":"0","parameterNumber":3,"parameterNumberName":"V-component_of_CURRENTS"},"data":[0,0,0,0,0,0,0,0,0,0,0,0,0,0,0,0,0,0,0,0,0,0,0,0,0,0,0,0,0,0,0,0,0,0,0,0,0,0,0,0,0,0,0,0,0,0,0,0,0,0,0,0,0,0,0,0,0,0,-0.1104,-0.1105,0,-0.1125,-0.1125,-0.1125,-0.1152,-0.1152,-0.1153,-0.1154,-0.1191,-0.1191,-0.1191,0,0,0,0,0,0,0,0,0,0,0,0,0,-0.1074,-0.1074,-0.1104,-0.1105,-0.1106,-0.1125,-0.1125,-0.1125,-0.1151,-0.1152,-0.1153,-0.1154,-0.1191,-0.1191,-0.1191,0,0,0,0,0,0,0,0,0,0,0,0,0,-0.1086,-0.1074,-0.1104,-0.1124,-0.1127,-0.1126,-0.1125,-0.1125,-0.1151,-0.1152,-0.1154,-0.1155,-0.1191,-0.1191,-0.1191,-0.1168,0,0,-0.1192,-0.1192,0,0,0,0,0,0,0,0,-0.1085,-0.1087,-0.1121,-0.1123,-0.1126,-0.1141,-0.1129,-0.1142,-0.1151,-0.1137,-0.1154,-0.1156,-0.1178,-0.1179,-0.1174,-0.117,-0.1171,-0.1192,-0.1192,-0.1193,-0.1193,0,0,0,0,0,0,0,-0.1085,-0.1086,-0.1108,-0.1122,-0.1125,-0.1129,-0.1131,-0.1131,-0.1147,-0.1138,-0.1142,-0.1151,-0.1179,-0.1173,-0.1175,-0.1172,-0.1192,-0.1192,-0.1193,-0.1193,-0.1167,-0.1166,0,0,0,0,0,0,-0.109,-0.1085,-0.1107,-0.1109,-0.1113,-0.1129,-0.1131,-0.1131,-0.1147,-0.1151,-0.115,-0.1152,-0.1172,-0.1174,-0.1176,-0.1168,-0.1193,-0.1193,-0.1193,-0.1168,-0.1167,-0.1166,0,0,0,0,0,0,-0.1089,-0.1092,-0.1107,-0.1102,-0.1105,-0.1128,-0.1128,-0.1131,-0.1126,-0.1156,-0.116,-0.1142,-0.1173,-0.1176,-0.1184,-0.117,-0.1193,-0.1193,-0.1169,-0.1168,-0.1167,-0.1141,0,0,0,0,0,0,-0.1088,-0.1091,-0.1086,-0.1102,-0.1105,-0.1099,-0.1127,-0.1131,-0.1132,-0.1135,-0.1151,-0.1156,-0.1174,-0.1183,-0.1184,-0.117,-0.1193,-0.117,-0.1168,-0.1167,-0.1143,-0.1139,-0.1135,0,0,0,0,0,-0.1087,-0.1074,-0.1085,-0.1088,-0.11,-0.1099,-0.11,-0.1119,-0.1131,-0.1119,-0.1142,-0.1155,-0.1173,-0.1183,-0.1184,-0.117,-0.1171,-0.1169,-0.1167,-0.1144,-0.114,-0.1135,0,0,0,0,0,0,-0.1057,-0.1076,-0.1089,-0.1083,-0.109,-0.1105,-0.1099,-0.111,-0.1116,-0.1123,-0.1148,-0.1154,-0.1156,-0.1161,-0.1171,-0.1156,-0.1172,-0.117,-0.1154,-0.1149,-0.1146,-0.1135,-0.1194,0,0,0,0,0,-0.1049,-0.1045,-0.1065,-0.1059,-0.1061,-0.1076,-0.1077,-0.1091,-0.1104,-0.1107,-0.1122,-0.1135,-0.1145,-0.1148,-0.1157,-0.1145,-0.1149,-0.1135,-0.1131,-0.1128,-0.1119,-0.1117,-0.1112,-0.116,-0.116,-0.116,0,0,-0.1036,-0.1048,-0.1045,-0.1052,-0.1058,-0.1048,-0.1078,-0.1077,-0.1073,-0.111,-0.1104,-0.1125,-0.1141,-0.1138,-0.1138,-0.1142,-0.1115,-0.1125,-0.1123,-0.1115,-0.1114,-0.111,-0.1106,-0.1158,-0.1159,-0.1159,0,0,-0.1005,-0.1017,-0.1001,-0.1002,-0.1015,-0.1025,-0.1022,-0.1035,-0.1045,-0.1046,-0.1075,-0.1087,-0.1094,-0.1106,-0.1112,-0.1087,-0.11,-0.1087,-0.1056,-0.1054,-0.1051,-0.1047,-0.1044,-0.1041,-0.108,-0.108,-0.108,0,-0.0988,-0.0975,-0.0995,-0.098,-0.0979,-0.101,-0.099,-0.0998,-0.1015,-0.1021,-0.1041,-0.106,-0.1077,-0.1075,-0.1072,-0.1079,-0.1081,-0.1075,-0.105,-0.1047,-0.1044,-0.1042,-0.1039,-0.1079,-0.1079,-0.1079,-0.1079,0,-0.0944,-0.0935,-0.0924,-0.0918,-0.0915,-0.0904,-0.0925,-0.0925,-0.0946,-0.0964,-0.0976,-0.1006,-0.1016,-0.1023,-0.1043,-0.1027,-0.1037,-0.1052,-0.1064,-0.1038,-0.1037,-0.1034,-0.1077,-0.1077,-0.1078,-0.1078,0,0,-0.0894,-0.0894,-0.0887,-0.0877,-0.0883,-0.0874,-0.0869,-0.0873,-0.0864,-0.0899,-0.0892,-0.0924,-0.095,-0.0958,-0.0985,-0.0986,-0.0973,-0.1007,-0.1007,-0.1007,-0.0968,-0.0937,-0.0931,-0.0988,-0.0987,-0.0987,-0.0975,0,-0.0851,-0.0813,-0.0827,-0.0789,-0.0769,-0.0796,-0.0784,-0.0797,-0.0817,-0.0819,-0.0868,-0.0872,-0.0923,-0.0924,-0.0939,-0.0971,-0.0964,-0.0975,-0.0989,-0.0989,-0.0968,-0.0926,-0.0839,-0.0817,-0.0972,-0.0972,-0.0971,0,-0.0792,-0.078,-0.0734,-0.0726,-0.0719,-0.0702,-0.0689,-0.0686,-0.071,-0.0727,-0.0757,-0.0795,-0.082,-0.0856,-0.0899,-0.0906,-0.0925,-0.0949,-0.0949,-0.0925,-0.0952,-0.0868,-0.0806,-0.0969,-0.0967,-0.0967,-0.0968,0,-0.0729,-0.0711,-0.0673,-0.0666,-0.066,-0.0646,-0.0645,-0.0654,-0.0642,-0.0663,-0.0655,-0.0714,-0.0724,-0.0777,-0.0844,-0.0865,-0.0881,-0.0916,-0.0903,-0.0902,-0.083,-0.0823,-0.0928,-0.0915,-0.0915,-0.0915,-0.0915,0,-0.0662,-0.063,-0.0641,-0.0613,-0.0563,-0.059,-0.0541,-0.0548,-0.0556,-0.0516,-0.0601,-0.0576,-0.0701,-0.0737,-0.0809,-0.0846,-0.0854,-0.0881,-0.0889,-0.0818,-0.0811,-0.0952,-0.1043,-0.0914,-0.0914,-0.0914,-0.0914,0,-0.0569,-0.0583,-0.0534,-0.053,-0.0523,-0.048,-0.0462,-0.0425,-0.0454,-0.0403,-0.0403,-0.0467,-0.0513,-0.0632,-0.0707,-0.0776,-0.0881,-0.083,-0.074,-0.0737,-0.0883,-0.0973,-0.1038,-0.11,-0.0815,-0.0814,-0.0813,0,-0.0509,-0.0476,-0.045,-0.0408,-0.0395,-0.0355,-0.0315,-0.0351,-0.0313,-0.0315,-0.0273,-0.0322,-0.0304,-0.0436,-0.0567,-0.0676,-0.0828,-0.068,-0.0701,-0.0865,-0.0972,-0.1042,-0.1095,-0.0599,-0.0596,-0.0594,-0.0593,0,-0.038,-0.0376,-0.0329,-0.0256,-0.0207,-0.0156,-0.0116,-0.0079,-0.01,-0.0051,0.0022,0.0033,-0.0112,-0.0164,-0.0362,-0.0471,-0.0768,-0.064,-0.0828,-0.0816,-0.0878,-0.0949,-0.0651,-0.0574,-0.0576,-0.0578,-0.0579,-0.0579,-0.0265,-0.02,-0.0146,-0.0064,-0.0016,0.0062,0.0148,0.0191,0.0284,0.0426,0.0351,0.0507,0.0272,0.0024,-0.0226,-0.0596,-0.0635,-0.0669,-0.0764,-0.0821,-0.0879,-0.0542,-0.0469,-0.047,-0.0471,-0.0472,-0.0473,0,-0.0094,-0.0035,0.0044,0.0145,0.024,0.0214,0.031,0.0432,0.0607,0.0768,0.09,0.0984,0.0673,0.0257,-0.0272,-0.0614,-0.0785,-0.0836,-0.0933,-0.0984,-0.0683,-0.0675,-0.0622,-0.0622,-0.0622,-0.0621,-0.0621,-0.0621,0.0012,0.0137,0.0172,0.037,0.0439,0.0598,0.0681,0.0861,0.1023,0.1367,0.1577,0.1655,0.1323,0.0177,-0.0644,-0.0862,-0.1139,-0.1157,-0.1353,-0.1179,-0.1173,-0.1167,-0.1183,-0.1238,-0.1238,-0.1584,-0.1587,-0.159]}],[{"header":{"parameterUnit":"m.s-1","parameterCategory":2,"la1":30.2991,"la2":30.254,"lo1":-89.0895,"lo2":-89.0444,"dy":0.0017,"dx":0.0017,"nx":28,"ny":28,"refTime":"2023-10-13T09:00:00:Z","depth":"2","parameterNumber":2,"parameterNumberName":"U-component_of_CURRENTS"},"data":[0,0,0,0,0,0,0,0,0,0,0,0,0,0,0,0,0,0,0,0,0,0,0,0,0,0,0,0,0,0,0,0,0,0,0,0,0,0,0,0,0,0,0,0,0,0,0,0,0,0,0,0,0,0,0,0,0,0,0.1409,0.141,0,0.149,0.1491,0.1492,0.1497,0.1496,0.1495,0.1494,0.151,0.1511,0.1512,0,0,0,0,0,0,0,0,0,0,0,0,0,0.1275,0.1277,0.1409,0.141,0.1412,0.149,0.1491,0.1492,0.1497,0.1496,0.1495,0.1494,0.151,0.1511,0.1512,0,0,0,0,0,0,0,0,0,0,0,0,0,0.134,0.1278,0.1409,0.1425,0.1428,0.149,0.1491,0.1492,0.1497,0.1496,0.1495,0.1494,0.1509,0.1511,0.1512,0.1543,0,0,0.1517,0.1518,0,0,0,0,0,0,0,0,0.1336,0.1345,0.1422,0.1424,0.1427,0.1484,0.145,0.1507,0.1497,0.1468,0.1494,0.1493,0.1498,0.15,0.1515,0.1543,0.1544,0.1517,0.1518,0.1519,0.1519,0,0,0,0,0,0,0,0.1332,0.1341,0.1439,0.1423,0.1427,0.1435,0.1442,0.1461,0.1484,0.147,0.1472,0.1485,0.1498,0.1514,0.1515,0.1544,0.1517,0.1519,0.152,0.152,0.1619,0.162,0,0,0,0,0,0,0.1328,0.1337,0.1436,0.1441,0.1381,0.1438,0.1446,0.1465,0.1486,0.1489,0.1486,0.1485,0.1511,0.1513,0.1516,0.1564,0.1519,0.152,0.1521,0.1617,0.1619,0.1621,0,0,0,0,0,0,0.1325,0.1336,0.1433,0.1392,0.1406,0.1441,0.1462,0.1467,0.1485,0.1499,0.15,0.1499,0.1511,0.1514,0.1545,0.1564,0.1521,0.1522,0.1615,0.1618,0.162,0.1654,0,0,0,0,0,0,0.1321,0.1335,0.1342,0.1393,0.1408,0.1471,0.1464,0.147,0.1496,0.1495,0.151,0.1511,0.151,0.1543,0.1547,0.1565,0.1524,0.1613,0.1616,0.1619,0.165,0.1657,0.1663,0,0,0,0,0,0.1316,0.1333,0.1342,0.1354,0.1419,0.1472,0.1481,0.15,0.1497,0.1511,0.1527,0.151,0.1565,0.1546,0.155,0.1569,0.1612,0.1615,0.1619,0.1648,0.1656,0.1663,0,0,0,0,0,0,0.1271,0.1337,0.1348,0.1381,0.1424,0.1474,0.149,0.1506,0.1532,0.1528,0.1534,0.1537,0.1572,0.1572,0.1551,0.1609,0.1585,0.159,0.1606,0.1613,0.1619,0.1618,0.1525,0,0,0,0,0,0.1268,0.13,0.1359,0.1384,0.1408,0.145,0.1473,0.1491,0.1524,0.1534,0.1546,0.1564,0.1593,0.1603,0.1623,0.1656,0.1682,0.1672,0.1678,0.1683,0.1687,0.1751,0.1764,0.1633,0.1633,0.1633,0,0,0.1253,0.1297,0.1311,0.1377,0.1411,0.1452,0.146,0.1501,0.1533,0.1531,0.1568,0.1586,0.1608,0.1647,0.1661,0.1646,0.1738,0.1688,0.1692,0.1693,0.1757,0.1769,0.178,0.1636,0.1635,0.1635,0,0,0.1248,0.1285,0.1311,0.1355,0.1416,0.1451,0.1464,0.152,0.1541,0.1587,0.1597,0.1629,0.1664,0.1689,0.1706,0.1761,0.177,0.1764,0.1791,0.1854,0.1865,0.1875,0.194,0.1955,0.1765,0.1765,0.1765,0,0.1221,0.1272,0.1324,0.1367,0.1404,0.1452,0.1488,0.1527,0.1582,0.1615,0.1599,0.1683,0.1688,0.1755,0.1767,0.1773,0.1813,0.1757,0.1861,0.1872,0.1881,0.1945,0.1962,0.1767,0.1767,0.1766,0.1766,0,0.1244,0.1283,0.1306,0.1378,0.1424,0.1465,0.1533,0.1575,0.1605,0.1647,0.1716,0.1737,0.1788,0.1794,0.1793,0.1868,0.1877,0.1863,0.1839,0.1896,0.196,0.1977,0.177,0.1769,0.1768,0.1768,0,0,0.1181,0.1296,0.13,0.1341,0.1435,0.1476,0.1546,0.1628,0.1685,0.1727,0.18,0.184,0.1857,0.1878,0.1887,0.1928,0.2023,0.192,0.1923,0.1979,0.2176,0.2114,0.2126,0.2029,0.2032,0.2034,0.2199,0,0.1175,0.1247,0.1313,0.138,0.1426,0.1508,0.1572,0.1655,0.1725,0.1807,0.1853,0.1917,0.1891,0.1917,0.196,0.2012,0.2067,0.198,0.2117,0.2122,0.2054,0.2142,0.2008,0.2137,0.2215,0.2218,0.222,0,0.1169,0.1227,0.129,0.1401,0.1428,0.1478,0.1605,0.1672,0.1805,0.1864,0.1945,0.1986,0.2067,0.2024,0.2155,0.2105,0.2144,0.2174,0.2181,0.2119,0.2089,0.2091,0.2165,0.2248,0.2246,0.2244,0.2242,0,0.1105,0.1206,0.1256,0.1295,0.1429,0.1478,0.1547,0.1684,0.1763,0.1905,0.1979,0.2078,0.214,0.2205,0.2269,0.2223,0.2414,0.236,0.2349,0.2346,0.2255,0.2238,0.2456,0.2456,0.2456,0.2455,0.2455,0,0.1078,0.1115,0.1231,0.1265,0.1335,0.1442,0.1538,0.1633,0.1783,0.189,0.1997,0.21,0.2187,0.2301,0.2332,0.2411,0.2477,0.2378,0.239,0.2263,0.2246,0.2347,0.2332,0.2461,0.246,0.2459,0.2458,0,0.0999,0.1074,0.114,0.1269,0.1309,0.1358,0.1516,0.1598,0.1749,0.1896,0.1943,0.2145,0.2304,0.24,0.2532,0.2494,0.2567,0.2576,0.2423,0.2411,0.2438,0.2424,0.2572,0.2572,0.2571,0.257,0.257,0,0.0967,0.0996,0.1117,0.116,0.1218,0.1312,0.1388,0.1554,0.1658,0.1922,0.1994,0.2204,0.2316,0.251,0.2548,0.2624,0.2643,0.249,0.235,0.2457,0.2454,0.244,0.2427,0.2264,0.2261,0.2259,0.2257,0,0.0911,0.0951,0.1009,0.1097,0.1173,0.126,0.1384,0.146,0.1674,0.1808,0.2007,0.2109,0.2326,0.2361,0.2468,0.2476,0.2457,0.2439,0.2645,0.2229,0.2172,0.2167,0.2163,0.2236,0.2238,0.224,0.2241,0.2242,0.0859,0.0882,0.0966,0.1046,0.1126,0.1217,0.1273,0.1412,0.1555,0.1745,0.1897,0.2022,0.2124,0.2219,0.2222,0.226,0.238,0.2268,0.2274,0.2282,0.2191,0.2133,0.2174,0.2176,0.2177,0.2178,0.218,0,0.0817,0.0863,0.0922,0.102,0.1077,0.1151,0.1286,0.1324,0.1448,0.1628,0.1746,0.1713,0.1802,0.1947,0.1971,0.1963,0.1919,0.1896,0.184,0.1865,0.1887,0.1771,0.1645,0.1643,0.1641,0.1638,0,0,0.0802,0.0843,0.0886,0.0962,0.1029,0.1098,0.1161,0.1213,0.1327,0.1388,0.1487,0.1659,0.1845,0.1683,0.1711,0.1688,0.1739,0.1631,0.2074,0.2032,0.2049,0.2137,0.1992,0,0,0,0,0]},{"header":{"parameterUnit":"m.s-1","parameterCategory":2,"la1":30.2991,"la2":30.254,"lo1":-89.0895,"lo2":-89.0444,"dy":0.0017,"dx":0.0017,"nx":28,"ny":28,"refTime":"2023-10-13T09:00:00:Z","depth":"2","parameterNumber":3,"parameterNumberName":"V-component_of_CURRENTS"},"data":[0,0,0,0,0,0,0,0,0,0,0,0,0,0,0,0,0,0,0,0,0,0,0,0,0,0,0,0,0,0,0,0,0,0,0,0,0,0,0,0,0,0,0,0,0,0,0,0,0,0,0,0,0,0,0,0,0,0,0.0373,0.0372,0,0.0316,0.0315,0.0315,0.0255,0.0254,0.0253,0.0252,0.0167,0.0166,0.0164,0,0,0,0,0,0,0,0,0,0,0,0,0,0.0403,0.0403,0.0373,0.0372,0.0372,0.0316,0.0315,0.0314,0.0255,0.0254,0.0253,0.0252,0.0168,0.0166,0.0164,0,0,0,0,0,0,0,0,0,0,0,0,0,0.0372,0.0403,0.0373,0.0336,0.0332,0.0316,0.0315,0.0314,0.0255,0.0254,0.0253,0.0252,0.0169,0.0166,0.0164,0.0172,0,0,0.0157,0.0156,0,0,0,0,0,0,0,0,0.0373,0.037,0.0342,0.0338,0.0334,0.0292,0.0295,0.0266,0.0255,0.0283,0.0252,0.0251,0.0208,0.0202,0.0193,0.0168,0.0165,0.0157,0.0155,0.0154,0.0154,0,0,0,0,0,0,0,0.0376,0.0372,0.0349,0.0341,0.0336,0.0313,0.0307,0.0289,0.0251,0.0281,0.0276,0.0272,0.0205,0.0196,0.0191,0.0164,0.0157,0.0155,0.0153,0.0152,0.0105,0.0105,0,0,0,0,0,0,0.0387,0.0375,0.0351,0.0348,0.0352,0.0313,0.0307,0.0306,0.0252,0.0243,0.0273,0.0269,0.02,0.0194,0.0188,0.0178,0.0154,0.0152,0.0151,0.0105,0.0105,0.0106,0,0,0,0,0,0,0.0388,0.0386,0.0353,0.036,0.0355,0.0314,0.0313,0.0305,0.0286,0.0247,0.0237,0.026,0.0199,0.0191,0.0166,0.0174,0.0151,0.0149,0.0105,0.0105,0.0105,0.0169,0,0,0,0,0,0,0.0389,0.0387,0.0386,0.0361,0.0355,0.035,0.0314,0.0305,0.0286,0.028,0.0233,0.0224,0.0198,0.017,0.0163,0.0171,0.0147,0.0105,0.0105,0.0105,0.0166,0.0171,0.0175,0,0,0,0,0,0.0391,0.0405,0.0387,0.0383,0.0357,0.035,0.0345,0.0311,0.0286,0.0287,0.0249,0.0225,0.0167,0.0168,0.0161,0.0168,0.0105,0.0105,0.0105,0.0164,0.017,0.0175,0,0,0,0,0,0,0.042,0.04,0.0379,0.0385,0.0368,0.034,0.034,0.0313,0.0284,0.0272,0.0229,0.0219,0.0199,0.0175,0.0177,0.0153,0.0131,0.013,0.0178,0.0183,0.0188,0.0205,0.0145,0,0,0,0,0,0.0427,0.043,0.0404,0.0409,0.0404,0.0369,0.0359,0.0335,0.0308,0.0293,0.0256,0.022,0.0198,0.0183,0.0157,0.0149,0.0119,0.0147,0.0151,0.0155,0.0163,0.0125,0.0127,0.0107,0.0107,0.0107,0,0,0.044,0.0428,0.043,0.0415,0.0399,0.0403,0.036,0.0351,0.0349,0.029,0.0272,0.0233,0.0198,0.0185,0.0174,0.0165,0.0144,0.0155,0.0159,0.0166,0.0126,0.0128,0.0129,0.0107,0.0107,0.0107,0,0,0.0479,0.0459,0.0475,0.0466,0.0444,0.0425,0.0423,0.0388,0.0368,0.0348,0.0304,0.0272,0.0234,0.0212,0.0197,0.021,0.0167,0.0197,0.0236,0.0199,0.0201,0.0202,0.0166,0.0163,0.0202,0.0202,0.0202,0,0.0491,0.0508,0.0479,0.0492,0.0493,0.0439,0.0458,0.0435,0.0392,0.0386,0.035,0.0289,0.0251,0.0245,0.0242,0.0222,0.0191,0.0222,0.0206,0.0206,0.0206,0.0169,0.0165,0.0205,0.0205,0.0204,0.0204,0,0.0543,0.055,0.0563,0.056,0.0558,0.0564,0.0534,0.0516,0.0477,0.0452,0.0422,0.0361,0.0327,0.0307,0.0277,0.0263,0.0237,0.0215,0.0197,0.0212,0.0172,0.0167,0.0209,0.0208,0.0207,0.0207,0,0,0.0583,0.0596,0.0597,0.0612,0.0593,0.0601,0.0599,0.0591,0.0599,0.0532,0.0535,0.0472,0.0424,0.0403,0.0352,0.0315,0.0279,0.0267,0.0263,0.0238,0.0193,0.0158,0.0149,0.025,0.025,0.0249,0.0165,0,0.0627,0.0673,0.0665,0.0705,0.0728,0.0691,0.0701,0.0683,0.0655,0.064,0.0566,0.054,0.0467,0.0442,0.0394,0.0311,0.0268,0.0303,0.0175,0.0172,0.0145,0.0143,0.0139,0.0063,0.016,0.0159,0.0158,0,0.0678,0.0704,0.0756,0.0786,0.0794,0.0806,0.0819,0.0821,0.0789,0.0764,0.0716,0.0649,0.058,0.051,0.0375,0.0398,0.0301,0.023,0.0225,0.0168,0.0128,0.0061,0.0049,0.0149,0.015,0.0151,0.0151,0,0.0727,0.0767,0.0814,0.0823,0.0846,0.0862,0.0868,0.0858,0.0874,0.0835,0.0829,0.0737,0.0679,0.0555,0.0395,0.0378,0.0248,0.0208,0.0087,0.0083,0.0044,0.0038,0.0113,0.0113,0.0113,0.0113,0.0113,0,0.0778,0.0814,0.0841,0.0868,0.0923,0.0921,0.0972,0.0961,0.0964,0.0992,0.0889,0.0883,0.0683,0.0579,0.0432,0.025,0.0272,0.0094,0.0059,0.0065,0.0062,0.0109,0.011,0.011,0.0111,0.0111,0.0112,0,0.0817,0.0835,0.0893,0.0934,0.0948,0.0986,0.1032,0.1075,0.1057,0.1086,0.1069,0.0979,0.0845,0.0656,0.0456,0.0296,0.0134,0.0065,0.0085,0.0054,-0.002,-0.0015,-0.0093,-0.0095,-0.0096,-0.0098,-0.0099,0,0.0835,0.0872,0.0938,0.0972,0.0989,0.1043,0.1089,0.1113,0.1166,0.1155,0.1182,0.1059,0.0982,0.0682,0.0405,0.014,0.0131,-0.0052,-0.0092,-0.0015,-0.0041,-0.0034,-0.0027,-0.0122,-0.0123,-0.0124,-0.0125,0,0.0868,0.0893,0.0938,0.1012,0.107,0.1148,0.1215,0.1281,0.1313,0.1332,0.1349,0.1281,0.0978,0.0688,0.0313,0.0144,-0.0013,-0.0083,-0.0006,-0.0065,-0.0049,-0.0072,-0.0064,-0.0134,-0.0133,-0.0133,-0.0132,-0.0132,0.0875,0.0911,0.097,0.1044,0.1117,0.1233,0.1314,0.1404,0.1496,0.1511,0.1461,0.1337,0.1007,0.0505,0.0213,-0.0089,-0.0073,-0.0208,-0.0203,-0.0196,-0.018,-0.0168,-0.0272,-0.0272,-0.0272,-0.0272,-0.0272,0,0.0863,0.0912,0.0992,0.1093,0.119,0.1224,0.1381,0.1469,0.1592,0.157,0.1536,0.1191,0.0846,0.0514,0.003,-0.0265,-0.0267,-0.0333,-0.0287,-0.0277,-0.0268,-0.0253,-0.0366,-0.0367,-0.0368,-0.0368,0,0,0.0849,0.0912,0.0972,0.1125,0.1201,0.1343,0.144,0.1582,0.1624,0.1589,0.1482,0.131,0.0902,0.0533,0.0154,-0.0112,-0.0118,-0.015,-0.0049,0.006,0.0072,-0.0177,-0.0141,0,0,0,0,0]}],[{"header":{"parameterUnit":"m.s-1","parameterCategory":2,"la1":30.2991,"la2":30.254,"lo1":-89.0895,"lo2":-89.0444,"dy":0.0017,"dx":0.0017,"nx":28,"ny":28,"refTime":"2023-10-13T09:00:00:Z","depth":"4","parameterNumber":2,"parameterNumberName":"U-component_of_CURRENTS"},"data":[0,0,0,0,0,0,0,0,0,0,0,0,0,0,0,0,0,0,0,0,0,0,0,0,0,0,0,0,0,0,0,0,0,0,0,0,0,0,0,0,0,0,0,0,0,0,0,0,0,0,0,0,0,0,0,0,0,0,0.0748,0.0749,0,0.0785,0.0786,0.0786,0.0824,0.0824,0.0825,0.0825,0.085,0.085,0.085,0,0,0,0,0,0,0,0,0,0,0,0,0,0.0696,0.0697,0.0748,0.0749,0.0749,0.0785,0.0786,0.0786,0.0824,0.0824,0.0825,0.0825,0.085,0.085,0.085,0,0,0,0,0,0,0,0,0,0,0,0,0,0.0725,0.0698,0.0748,0.0772,0.0774,0.0785,0.0786,0.0787,0.0824,0.0824,0.0825,0.0826,0.085,0.085,0.085,0.0838,0,0,0.0851,0.0851,0,0,0,0,0,0,0,0,0.0724,0.0727,0.0768,0.077,0.0773,0.08,0.0777,0.0803,0.0823,0.0805,0.0825,0.0826,0.0831,0.0833,0.0839,0.084,0.0841,0.0851,0.0851,0.0852,0.0852,0,0,0,0,0,0,0,0.0722,0.0726,0.0764,0.0768,0.0771,0.0776,0.0781,0.0782,0.0814,0.0807,0.081,0.0813,0.0833,0.0839,0.084,0.0841,0.0851,0.0852,0.0852,0.0852,0.0902,0.0903,0,0,0,0,0,0,0.0716,0.0724,0.0762,0.0765,0.0749,0.0776,0.0782,0.0791,0.0814,0.0819,0.0812,0.0814,0.0838,0.084,0.0841,0.0896,0.0852,0.0852,0.0852,0.0901,0.0903,0.0904,0,0,0,0,0,0,0.0715,0.0719,0.0761,0.0744,0.075,0.0776,0.0786,0.0792,0.0823,0.0818,0.0823,0.0841,0.0839,0.0841,0.0865,0.0894,0.0852,0.0852,0.09,0.0902,0.0903,0.0962,0,0,0,0,0,0,0.0713,0.0719,0.0734,0.0744,0.0751,0.078,0.0786,0.0792,0.0822,0.0826,0.0844,0.0846,0.0839,0.0864,0.0865,0.0894,0.0853,0.0898,0.0901,0.0903,0.0959,0.0965,0.0971,0,0,0,0,0,0.0711,0.0723,0.0735,0.074,0.0767,0.078,0.0785,0.0805,0.0823,0.0837,0.0854,0.0846,0.0879,0.0865,0.0866,0.0896,0.0897,0.09,0.0903,0.0956,0.0964,0.0971,0,0,0,0,0,0,0.0705,0.0728,0.0741,0.076,0.0776,0.0787,0.0805,0.082,0.0845,0.0856,0.0857,0.086,0.0884,0.0885,0.087,0.0917,0.0888,0.0891,0.0928,0.0936,0.0942,0.0938,0.0853,0,0,0,0,0,0.0711,0.073,0.0747,0.0764,0.0777,0.0798,0.0811,0.0824,0.0841,0.0855,0.0876,0.0891,0.0891,0.0911,0.0906,0.094,0.0934,0.096,0.0967,0.0972,0.0969,0.0974,0.098,0.0912,0.0912,0.0912,0,0,0.0713,0.0728,0.074,0.0765,0.0784,0.0802,0.0809,0.0833,0.0855,0.0851,0.0903,0.0905,0.0899,0.0928,0.0942,0.094,0.0996,0.0976,0.098,0.0974,0.0977,0.0984,0.0989,0.0914,0.0914,0.0913,0,0,0.0718,0.0743,0.0762,0.0781,0.0809,0.0818,0.0831,0.0864,0.0889,0.0925,0.0924,0.0947,0.0973,0.0975,0.0975,0.1015,0.1014,0.1029,0.1078,0.1083,0.1088,0.1093,0.1125,0.1131,0.1051,0.1051,0.1052,0,0.072,0.0746,0.0768,0.0791,0.0808,0.0829,0.0849,0.0873,0.0913,0.0938,0.0949,0.0987,0.0987,0.1008,0.1031,0.1028,0.1045,0.1049,0.1091,0.1095,0.1098,0.113,0.1136,0.1055,0.1054,0.1054,0.1054,0,0.0736,0.0765,0.0779,0.0816,0.0835,0.0855,0.0884,0.0926,0.0962,0.0982,0.1025,0.1031,0.1059,0.1068,0.1066,0.1102,0.111,0.1083,0.107,0.1109,0.114,0.1146,0.1059,0.1058,0.1057,0.1056,0,0,0.0714,0.0777,0.0786,0.081,0.0851,0.0864,0.0913,0.0952,0.099,0.1036,0.1084,0.1099,0.1119,0.112,0.1127,0.1146,0.1199,0.1147,0.1145,0.1177,0.1245,0.1216,0.1219,0.1188,0.1189,0.1189,0.1267,0,0.0721,0.0765,0.0795,0.0835,0.0859,0.0901,0.0937,0.098,0.1024,0.1082,0.1103,0.1141,0.1134,0.1166,0.118,0.1189,0.1213,0.1182,0.1203,0.1204,0.1171,0.1223,0.1191,0.1272,0.1273,0.1274,0.1275,0,0.0726,0.0755,0.0798,0.0852,0.0867,0.0901,0.0969,0.1003,0.1076,0.1119,0.1169,0.119,0.1242,0.1219,0.1261,0.1251,0.1255,0.1255,0.1257,0.1207,0.1184,0.1217,0.1285,0.1284,0.1283,0.1283,0.1282,0,0.0695,0.0756,0.079,0.081,0.0872,0.0917,0.0958,0.1027,0.1071,0.1159,0.1214,0.1251,0.1307,0.1303,0.1333,0.1307,0.1372,0.1325,0.1299,0.1298,0.1273,0.1267,0.1334,0.1334,0.1334,0.1333,0.1333,0,0.0677,0.0706,0.0791,0.0809,0.0853,0.0911,0.0969,0.1025,0.1117,0.1166,0.1238,0.1293,0.1333,0.138,0.1365,0.1375,0.1401,0.1317,0.1313,0.1302,0.1297,0.128,0.1272,0.1336,0.1336,0.1335,0.1335,0,0.0631,0.0685,0.0726,0.0812,0.0841,0.0877,0.0981,0.1026,0.1127,0.1205,0.1247,0.1362,0.143,0.1461,0.1483,0.1434,0.1425,0.1413,0.1445,0.144,0.1339,0.1334,0.1381,0.1381,0.1381,0.138,0.138,0,0.0611,0.063,0.072,0.0745,0.0791,0.086,0.0907,0.1019,0.1076,0.1229,0.1266,0.1394,0.1449,0.1469,0.1498,0.1494,0.146,0.1456,0.1347,0.1351,0.1342,0.1338,0.1333,0.1379,0.1379,0.1379,0.1379,0,0.0558,0.0601,0.0635,0.0696,0.0757,0.08,0.0892,0.0932,0.1059,0.1169,0.1258,0.1313,0.1404,0.1436,0.1473,0.1446,0.1454,0.145,0.1449,0.1347,0.1349,0.134,0.1336,0.1378,0.1378,0.1378,0.1378,0,0.0521,0.053,0.0588,0.0631,0.0691,0.0726,0.0783,0.0871,0.0943,0.1125,0.1152,0.1278,0.1387,0.1415,0.1432,0.1437,0.1388,0.131,0.1315,0.1317,0.126,0.125,0.1257,0,0,0,0,0,0.0479,0.0482,0.0517,0.0556,0.0614,0.0652,0.0759,0.0826,0.0964,0.0998,0.1074,0.1148,0.1224,0.1296,0.1284,0.1395,0.1384,0.1375,0.1292,0.137,0.1372,0.1311,0,0,0,0,0,0,0.0444,0.0472,0.0489,0.0486,0.0501,0.0558,0.0624,0.0722,0.0753,0.0899,0.0948,0.1066,0.1156,0.1205,0.1252,0.1274,0.1197,0.146,0.1457,0.1369,0.1371,0.1372,0.131,0,0,0,0,0]},{"header":{"parameterUnit":"m.s-1","parameterCategory":2,"la1":30.2991,"la2":30.254,"lo1":-89.0895,"lo2":-89.0444,"dy":0.0017,"dx":0.0017,"nx":28,"ny":28,"refTime":"2023-10-13T09:00:00:Z","depth":"4","parameterNumber":3,"parameterNumberName":"V-component_of_CURRENTS"},"data":[0,0,0,0,0,0,0,0,0,0,0,0,0,0,0,0,0,0,0,0,0,0,0,0,0,0,0,0,0,0,0,0,0,0,0,0,0,0,0,0,0,0,0,0,0,0,0,0,0,0,0,0,0,0,0,0,0,0,0.0217,0.0216,0,0.0169,0.0168,0.0168,0.015,0.015,0.015,0.0151,0.0077,0.0075,0.0073,0,0,0,0,0,0,0,0,0,0,0,0,0,0.0257,0.0256,0.0217,0.0216,0.0216,0.0169,0.0168,0.0167,0.015,0.015,0.015,0.0151,0.0078,0.0075,0.0073,0,0,0,0,0,0,0,0,0,0,0,0,0,0.0227,0.0256,0.0217,0.0201,0.02,0.0169,0.0168,0.0167,0.015,0.015,0.0151,0.0151,0.0079,0.0076,0.0072,0.0047,0,0,0.0063,0.0061,0,0,0,0,0,0,0,0,0.0229,0.0225,0.0204,0.0202,0.02,0.0166,0.0155,0.0126,0.015,0.0168,0.0151,0.0151,0.0104,0.0099,0.0089,0.0044,0.004,0.0062,0.006,0.0059,0.0058,0,0,0,0,0,0,0,0.0231,0.0227,0.0197,0.0204,0.0201,0.0184,0.0181,0.015,0.0135,0.0167,0.0166,0.0161,0.0103,0.0093,0.0088,0.0039,0.0062,0.006,0.0058,0.0056,-0.0056,-0.0057,0,0,0,0,0,0,0.0239,0.0229,0.0199,0.0196,0.0216,0.0184,0.018,0.0176,0.0136,0.013,0.016,0.016,0.0098,0.0091,0.0085,0.0048,0.0059,0.0056,0.0054,-0.0055,-0.0057,-0.0058,0,0,0,0,0,0,0.024,0.0237,0.0201,0.0212,0.0206,0.0183,0.0179,0.0175,0.0167,0.0131,0.0125,0.0157,0.0098,0.0089,0.0052,0.0045,0.0055,0.0052,-0.0054,-0.0056,-0.0057,-0.0023,0,0,0,0,0,0,0.0241,0.0237,0.024,0.0212,0.0206,0.0184,0.0179,0.0174,0.0163,0.0162,0.0125,0.0119,0.0097,0.0057,0.0049,0.0041,0.0049,-0.0053,-0.0055,-0.0057,-0.0023,-0.0024,-0.0024,0,0,0,0,0,0.0243,0.0246,0.0241,0.0237,0.021,0.0184,0.0179,0.0163,0.0163,0.0157,0.0129,0.012,0.0038,0.0053,0.0044,0.0035,-0.0052,-0.0054,-0.0057,-0.0023,-0.0024,-0.0024,0,0,0,0,0,0,0.0264,0.0243,0.0237,0.0234,0.0212,0.0182,0.0178,0.0165,0.0139,0.0139,0.0107,0.0098,0.0061,0.0039,0.0056,-0.0006,-0.0009,-0.0013,0.0019,0.0019,0.0018,0.0037,0.0047,0,0,0,0,0,0.027,0.0269,0.0241,0.0239,0.023,0.0205,0.0194,0.018,0.0153,0.0143,0.0116,0.0081,0.0042,0.0025,-0.0011,-0.0042,-0.0057,-0.0057,-0.0057,-0.0057,-0.005,-0.0086,-0.0088,-0.0066,-0.0066,-0.0066,0,0,0.0279,0.0267,0.0266,0.0243,0.0228,0.0213,0.0199,0.0183,0.0172,0.0137,0.0115,0.0078,0.0032,-0.0005,-0.0023,-0.0022,-0.0071,-0.006,-0.006,-0.0053,-0.0088,-0.009,-0.0092,-0.0067,-0.0067,-0.0067,0,0,0.0291,0.0283,0.0284,0.0267,0.0243,0.0223,0.022,0.0189,0.0178,0.0145,0.0115,0.0076,0.0024,-0.001,-0.0034,-0.0061,-0.0075,-0.0077,-0.0059,-0.0093,-0.0094,-0.0096,-0.0108,-0.011,-0.0074,-0.0073,-0.0073,0,0.0301,0.0297,0.0279,0.0271,0.0262,0.023,0.0224,0.0203,0.0163,0.0152,0.0143,0.0059,0.0022,-0.0025,-0.0036,-0.006,-0.0074,-0.0047,-0.0091,-0.0093,-0.0095,-0.0107,-0.011,-0.0072,-0.0072,-0.0072,-0.0073,0,0.0308,0.0305,0.0303,0.0285,0.0272,0.0259,0.023,0.0215,0.0196,0.0171,0.0126,0.0071,0.0026,-0.0,-0.0026,-0.0064,-0.0067,-0.0086,-0.008,-0.0094,-0.0107,-0.0111,-0.007,-0.0071,-0.0071,-0.0071,0,0,0.0326,0.0312,0.0312,0.0313,0.0279,0.0271,0.0253,0.0226,0.0225,0.0173,0.016,0.0082,0.0058,0.0028,-0.0014,-0.0047,-0.0075,-0.0067,-0.007,-0.0063,-0.0133,-0.0125,-0.0129,-0.0099,-0.01,-0.0101,-0.0132,0,0.0335,0.0338,0.0323,0.0323,0.032,0.0293,0.0282,0.0256,0.023,0.0209,0.0146,0.0116,0.0067,0.0053,0.0006,-0.0057,-0.0086,-0.0063,-0.0136,-0.0137,-0.0115,-0.0134,-0.0104,-0.0135,-0.0136,-0.0137,-0.0137,0,0.0343,0.0346,0.0355,0.0353,0.0351,0.035,0.0341,0.0325,0.0283,0.0265,0.0218,0.0173,0.0109,0.0077,-0.003,-0.0012,-0.0066,-0.0114,-0.0117,-0.0122,-0.0137,-0.0125,-0.0145,-0.0145,-0.0144,-0.0143,-0.0143,0,0.0369,0.0368,0.0384,0.038,0.0369,0.038,0.0376,0.0348,0.0356,0.031,0.0314,0.0218,0.0197,0.0095,-0.0006,-0.0016,-0.0113,-0.0141,-0.0183,-0.0182,-0.0192,-0.0191,-0.0208,-0.0208,-0.0208,-0.0208,-0.0207,0,0.0376,0.0388,0.0407,0.0413,0.044,0.0423,0.045,0.043,0.0425,0.044,0.0355,0.0353,0.0202,0.0128,0.0016,-0.009,-0.0097,-0.0178,-0.0194,-0.0178,-0.0174,-0.0194,-0.0192,-0.0209,-0.0208,-0.0208,-0.0208,0,0.0388,0.0397,0.0421,0.044,0.0453,0.0476,0.0514,0.0538,0.0523,0.0545,0.0541,0.0464,0.0363,0.0215,0.0063,-0.0035,-0.0155,-0.0187,-0.0136,-0.015,-0.0205,-0.0201,-0.0242,-0.0242,-0.0243,-0.0243,-0.0243,0,0.0388,0.0404,0.0454,0.0483,0.0497,0.0538,0.0573,0.0584,0.0618,0.0617,0.0636,0.056,0.0486,0.0285,0.0114,-0.0098,-0.0131,-0.019,-0.0226,-0.0199,-0.0211,-0.0207,-0.0203,-0.0243,-0.0243,-0.0243,-0.0243,0,0.0385,0.0417,0.0444,0.0516,0.057,0.062,0.0676,0.0714,0.0733,0.0732,0.0722,0.0609,0.05,0.031,0.0152,-0.0006,-0.0161,-0.0192,-0.0193,-0.0228,-0.02,-0.0211,-0.0207,-0.0243,-0.0243,-0.0243,-0.0243,0,0.0392,0.0422,0.0481,0.0539,0.0611,0.0681,0.0707,0.0757,0.079,0.0794,0.0796,0.0661,0.0586,0.0361,0.0211,0.0056,0.0004,-0.0059,-0.0069,-0.0071,-0.0026,0.0034,0.0052,0,0,0,0,0,0.0391,0.0433,0.0495,0.0567,0.0644,0.0687,0.0765,0.0792,0.0828,0.0834,0.0816,0.0711,0.0494,0.0401,0.0248,0.0189,-0.0036,0.0002,-0.0117,-0.0244,-0.0244,-0.0223,0,0,0,0,0,0,0.039,0.0453,0.0493,0.0582,0.0636,0.0726,0.078,0.0807,0.0808,0.0818,0.0709,0.0661,0.0451,0.0578,0.0241,0.0194,0.0095,-0.0097,-0.0101,-0.0244,-0.0244,-0.0244,-0.0222,0,0,0,0,0]}]]